Kosmos-637

operational
NORAD ID: 7229 Int'l Des: 1974-017 Owner: OKB10 Country: SU
MEOCIRCULAR

About Kosmos-637

Description loading...

Live Position

Loading 3D Globe...

Upcoming Passes

Altitude History

Altitude vs Time

uPlot chart will show altitude changes over time

Two-Line Element Set

1 07229U 74017A 26062.55058032 .00000087 00000-0 00000-0 0 9998
2 07229 1.0956 256.7236 0039143 72.3803 209.2349 1.00772501121137
Epoch: Mar 3, 2026 • Age: 22 hours

Current Status

Altitude 35487.4 km
Velocity 3.09 km/s
Sub-Earth Point 0.92°N, 179.38°E
Type other

Large Constellations

Loading constellations...